Date,TemperatureHighF,TemperatureAvgF,TemperatureLowF,DewpointHighF,DewpointAvgF,DewpointLowF,HumidityHigh,HumidityAvg,HumidityLow,PressureMaxIn,PressureMinIn,WindSpeedMaxMPH,WindSpeedAvgMPH,GustSpeedMaxMPH,PrecipitationSumIn
2013-2-1,77,68,62,63,59,52,91,73,50,0.00,40.00,13,6,35,0.01
2013-2-2,75,68,63,62,60,58,85,75,62,0.00,40.00,13,9,29,0.00
2013-2-3,74,66,60,60,58,56,96,76,57,0.00,40.00,12,6,24,0.00
2013-2-4,69,67,64,64,60,54,93,78,69,0.00,40.00,12,7,28,0.08
2013-2-5,72,66,62,63,59,57,100,80,61,0.00,40.00,11,5,30,0.17
2013-2-6,74,66,61,67,64,60,100,93,73,0.00,40.00,9,6,27,0.25
2013-2-7,75,67,62,68,65,62,100,92,76,0.00,40.00,10,4,23,0.07
2013-2-8,78,69,60,65,63,60,100,83,57,0.00,40.00,7,4,17,0.01
2013-2-9,76,67,59,65,61,59,100,82,59,0.00,40.00,10,6,24,0.01
2013-2-10,70,67,65,67,63,59,100,88,80,0.00,40.00,11,6,27,0.29
2013-2-11,69,66,62,68,64,61,100,95,88,0.00,40.00,12,5,28,0.36
2013-2-12,70,64,59,63,59,54,97,84,67,0.00,40.00,7,4,20,0.05
2013-2-13,73,65,59,60,56,53,97,74,55,0.00,40.00,9,5,20,0.01
2013-2-14,74,65,58,60,58,54,92,77,60,0.00,40.00,8,4,18,0.00
2013-2-15,76,68,63,65,60,56,99,78,59,0.00,40.00,13,8,28,0.67
2013-2-16,74,67,63,64,60,56,100,80,59,0.00,40.00,12,8,33,1.82
2013-2-17,72,67,62,61,58,56,91,74,63,0.00,40.00,12,8,35,0.05
2013-2-18,70,66,63,61,58,54,86,77,65,0.00,40.00,22,12,49,0.39
2013-2-19,70,65,62,62,60,56,97,83,66,0.00,40.00,13,9,34,0.99
2013-2-20,70,65,62,65,62,58,98,88,70,0.00,40.00,15,10,41,4.66
2013-2-21,67,65,62,66,63,58,100,95,79,0.00,40.00,14,7,31,3.55
2013-2-22,68,65,62,66,64,62,100,97,89,0.00,40.00,11,6,26,3.94
2013-2-23,70,65,63,66,64,62,100,95,83,0.00,40.00,15,7,39,1.44
2013-2-24,72,66,63,66,61,58,96,82,73,0.00,40.00,11,7,26,0.89
2013-2-25,73,67,64,64,60,57,97,80,66,0.00,40.00,11,8,30,0.11
2013-2-26,70,66,63,64,61,58,100,86,72,0.00,40.00,9,7,25,0.85
2013-2-27,75,68,62,63,59,53,96,74,53,0.00,40.00,16,7,34,0.76
2013-2-28,76,67,64,60,58,56,84,72,53,0.00,40.00,10,8,29,0.01